This demonstration page uses our WeatherBlox Daily Observations layout. Learn more.

41.55636, -103.73856

Hourly Observations for March 23, 2015

Temp ( °F °C ) Dew Point ( °F °C ) Humidity (%) Winds ( mph kmh ) Pressure ( in mb ) Visibility ( mi km ) Precip ( " mm )
12:53 am 00:53 Clear 36 2.2 29 -1.7 76 76 SE 5 7 30.11 1020 10 16.0934 0 0
1:53 am 01:53 Partly Cloudy 33 0.6 27 -2.8 78 78 E 7 11 30.1 1019 10 16.0934 0 0
2:53 am 02:53 Clear 33 0.6 28 -2.2 82 82 E 6 9 30.09 1019 10 16.0934 0 0
3:53 am 03:53 Clear 35 1.7 29 -1.7 78 78 E 7 11 30.06 1018 10 16.0934 0 0
4:53 am 04:53 Cloudy 38 3.3 31 -0.6 76 76 ESE 8 13 30.04 1017 10 16.0934 0 0
5:53 am 05:53 Cloudy 40 4.4 31 -0.6 70 70 E 10 17 30.03 1017 10 16.0934 0 0
6:53 am 06:53 Cloudy 42 5.6 31 -0.6 65 65 ESE 8 13 30.04 1017 10 16.0934 0 0
7:53 am 07:53 Cloudy 43 6.1 33 0.6 68 68 SE 8 13 30.05 1018 10 16.0934 0 0
8:53 am 08:53 Cloudy 46 7.8 33 0.6 61 61 ESE 10 17 30.03 1017 10 16.0934 0 0
9:53 am 09:53 Mostly Cloudy 50 10 33 0.6 52 52 ESE 14 22 30.01 1016 10 16.0934 0 0
10:53 am 10:53 Sunny 55 13 32 0 41 41 SSE 18 30 29.88 1012 10 16.0934 0 0
11:53 am 11:53 Sunny 56 13.3 32 0 40 40 SSE 21 33 29.93 1014 10 16.0934 0 0
12:53 pm 12:53 Sunny 60 15.6 32 0 35 35 SSE 23 37 29.89 1012 10 16.0934 0 0
1:53 pm 13:53 Sunny 64 17.8 32 0 30 30 S 23 37 29.84 1011 10 16.0934 0 0
2:53 pm 14:53 Partly Cloudy 64 17.8 32 0 30 30 SSE 26 43 29.78 1009 10 16.0934 0 0
3:53 pm 15:53 Mostly Cloudy 63 17.2 30 -1.1 29 29 SE 22 35 29.74 1007 10 16.0934 0 0
4:40 pm 16:40 Cloudy with Nearby Thunderstorms 63 17 30 -1 30 30 WNW 21 33 29.68 1005 10 16.0934 0 0
4:47 pm 16:47 Cloudy with Nearby Thunderstorms 57 14 37 3 48 48 NW 26 43 29.74 1007 9 14.48406 0 0
4:53 pm 16:53 Cloudy with Nearby Thunderstorms 53 11.7 41 5 64 64 WNW 26 43 29.81 1010 6 9.65604 0 0.0254
5:00 pm 17:00 Cloudy with Nearby Thunderstorms 52 11 43 6 72 72 NW 22 35 29.77 1008 9 14.48406 0 0
5:15 pm 17:15 Cloudy with Light Rain 54 12.2 41 5 62 62 NNW 6 9 29.77 1008 8 12.87472 0 0.0254
5:53 pm 17:53 Cloudy with Light Rain 57 13.9 39 3.9 51 51 SSE 17 28 29.78 1009 10 16.0934 0 0.0254
6:53 pm 18:53 Cloudy with Light Rain 54 12.2 39 3.9 57 57 SE 20 31 29.77 1008 10 16.0934 0 0.0254
7:53 pm 19:53 Cloudy with Rain 51 10.6 41 5 69 69 S 13 20 29.86 1011 3 4.82802 0.07 1.778
8:53 pm 20:53 Cloudy with Light Rain 51 10.6 40 4.4 66 66 W 9 15 29.87 1012 5 8.0467 0.08 2.032
9:53 pm 21:53 Mostly Cloudy 49 9.4 42 5.6 77 77 SSE 13 20 29.81 1010 10 16.0934 0.01 0.254
10:53 pm 22:53 Clear 46 7.8 41 5 83 83 S 10 17 29.82 1010 10 16.0934 0 0
11:53 pm 23:53 Clear 45 7.2 39 3.9 80 80 S 9 15 29.82 1010 10 16.0934 0 0

Powered by AerisWeather